Location: Newark
(33.6333°S, 78.8500°W)
Time: 00:41:54
(UTC+00:00)

Tiros 1 despin weight - Pass Details

Date: 24 September 2019
Orbit: 594 x 643 km, 48.2° (Epoch: 16 October)

Event Time Altitude Azimuth Distance (km) Brightness Sun altitude
Rises 09:29:33 0° 227° (SW) 2,945 - -20.0°
Reaches altitude 10° 09:32:01 10° 219° (SW) 2,039 - -19.5°
Exits shadow 09:32:24 12° 217° (SW) 1,902 ? -19.4°
Maximum altitude 09:36:25 39° 150° (SSE) 978 ? -18.6°
Drops below altitude 10° 09:40:50 10° 80° (E) 2,041 ? -17.7°
Sets 09:43:18 0° 72° (ENE) 2,947 ? -17.2°
